Tracking 25195 objects as of 20-Jan-2022
HD Live streaming from Space Station
objects crossing your sky now

STARLINK-3060

Track STARLINK-3060 now!
10-day predictions
STARLINK-3060 is classified as:


NORAD ID: 49155
Int'l Code: 2021-082AB
Perigee: 363.9 km
Apogee: 369.6 km
Inclination: 70.0 °
Period: 91.7 minutes
Semi major axis: 6737 km
RCS: Unknown
Launch date: September 14, 2021
Source: United States (US)
Launch site: AIR FORCE WESTERN TEST RANGE (AFWTR)
aabbcc
Your satellite tracking list
Your tracking list is empty




NASA's NSSDC Master Catalog

Two Line Element Set (TLE):
1 49155U 21082AB  22020.58334491 -.00003630  00000-0 -28636-4 0  9993
2 49155  70.0000 125.7664 0004199 294.1192  46.3207 15.69748860 21330
Source of the keplerian elements: AFSPC